Weather observations for the past three days for
Sand Point
Imperial (Metric)
Date Time (akdt) Wind (mph) Vis. (mi.) Weather Sky Cond. Temperature (ºF) Relative Humidity Wind Chill (°F) Heat Index (°F) Pressure Precipitation (in)
Air Dwpt 6 hour altimeter (in) sea level (mb) 1 hr 3 hr 6 hr
Max. Min.
23 08:56 Vrbl 5 10.00 Mostly Cloudy SCT009 BKN014 BKN024 51.1 48 89% 30.07 1018.4
23 07:56 NE 8 10.00 Mostly Cloudy SCT009 BKN014 BKN024 51.1 48 89% 30.06 1018.1
23 04:56 NE 8 10.00 Overcast OVC011 51.1 46.9 86% 30.07 1018.6
23 03:56 Vrbl 3 10.00 Overcast OVC011 51.1 46.9 53.1 51.1 86% 30.09 1019.1
23 01:56 Vrbl 3 10.00 Overcast OVC013 51.1 46.9 86% 30.1 1019.6
23 00:56 Calm 10.00 Overcast OVC013 51.1 46.9 86% 30.11 1019.9
22 23:56 E 5 10.00 Overcast OVC013 52 48 86% 30.11 1019.9
22 22:56 Calm 10.00 Overcast OVC015 52 48 86% 30.1 1019.6
22 20:56 Vrbl 5 10.00 Mostly Cloudy BKN017 55.9 48.9 77% 30.09 1019.0
22 19:56 Vrbl 3 10.00 Overcast OVC017 55.9 48.9 77% 30.09 1019.0
22 18:56 Vrbl 6 10.00 Partly Cloudy FEW023 SCT050 57 48.9 74% 30.09 1019.0
22 17:56 Vrbl 6 10.00 Partly Cloudy FEW033 SCT050 57 48 72% 30.09 1019.2
22 16:56 Vrbl 5 10.00 Partly Cloudy SCT022 SCT050 59 50 72% 30.1 1019.5
22 15:56 S 12 10.00 Partly Cloudy SCT020 SCT045 57.9 48.9 59 53.1 72% 30.1 1019.6
22 13:56 Vrbl 6 10.00 Mostly Cloudy BKN017 BKN022 BKN045 57 48.9 74% 30.09 1019.2
22 12:56 Vrbl 3 10.00 Overcast OVC017 55.9 48 75% 30.09 1019.0
22 11:56 NE 7 10.00 Mostly Cloudy BKN015 BKN021 BKN040 55.9 48.9 77% 30.08 1018.7
22 10:56 Vrbl 6 10.00 Overcast SCT012 BKN017 OVC025 54 48.9 83% 30.08 1018.7
22 09:56 Vrbl 6 10.00 Overcast SCT012 BKN017 OVC025 54 48.9 54 51.1 83% 30.08 1018.7
22 08:56 NE 7 10.00 Overcast SCT010 BKN014 OVC025 53.1 48.9 86% 30.06 1018.1
22 07:56 Vrbl 5 10.00 Overcast SCT008 BKN014 OVC020 52 50 93% 30.06 1018.2
22 06:56 N 5 10.00 Overcast SCT008 BKN014 OVC022 52 48.9 89% 30.05 1017.9
22 05:56 Vrbl 3 10.00 Overcast OVC006 52 48.9 89% 30.05 1017.8
22 03:56 Vrbl 3 10.00 Overcast OVC006 51.1 48.9 54 50 92% 30.06 1018.2
22 02:56 NE 8 10.00 Overcast OVC008 51.1 48.9 92% 30.07 1018.4
22 00:56 Calm 10.00 Mostly Cloudy BKN006 51.1 48.9 92% 30.08 1018.9
21 23:56 N 5 10.00 Overcast OVC006 51.1 48.9 92% 30.08 1018.8
21 22:56 Vrbl 6 10.00 Fair CLR 51.1 48 89% 30.06 1018.3
21 21:56 Calm 10.00 Fair CLR 54 48.9 62.1 54 83% 30.07 1018.4
21 20:56 N 7 10.00 Fair CLR 55.9 50 81% 30.07 1018.5
21 18:56 S 10 10.00 Partly Cloudy FEW080 SCT100 57 51.1 81% 30.08 1018.8
21 16:56 S 7 10.00 Partly Cloudy FEW080 SCT100 61 50 67% 30.1 1019.4
21 15:56 SW 5 10.00 A Few Clouds FEW070 FEW100 57 50 57.9 46 78% 30.11 1019.9
21 14:56 S 8 10.00 A Few Clouds FEW070 FEW100 57 48 72% 30.12 1020.1
21 12:56 S 6 7.00 Mostly Cloudy SCT000 BKN040 BKN070 52 48.9 89% 30.15 1021.1
21 11:56 Calm 2.00 Fog/Mist SCT000 BKN021 OVC035 48 46.9 96% 30.16 1021.5
21 10:56 Calm 1.75 Fog/Mist OVC002 46.9 46.9 100% 30.17 1021.8
21 09:56 N 3 0.75 Fog/Mist OVC002 46 46 46.9 45 100% 30.18 1022.1
21 08:56 Calm 0.75 Fog/Mist OVC002 46 46 100% 30.17 1022.0
21 05:56 Calm 0.50 Fog OVC002 45 45 100% 30.19 1022.4
21 04:56 Calm 0.25 Fog OVC002 45 45 100% 30.2 1022.7
21 03:56 Calm 0.50 Fog OVC002 46 46 54 46 100% 30.21 1023.1
21 02:56 NW 3 10.00 Overcast OVC002 46.9 46 97% 30.21 1023.3
21 00:56 NW 3 10.00 Fair CLR 46.9 46 97% 30.23 1023.8
20 23:56 W 5 10.00 Fair CLR 48.9 46 90% 48 30.23 1023.8
20 22:56 NW 5 10.00 Fair CLR 50 46.9 89% 49 30.22 1023.7
20 21:56 NW 6 10.00 Fair CLR 54 46.9 59 54 77% 30.22 1023.6
20 20:56 Vrbl 5 10.00 Fair CLR 54 46.9 77% 30.22 1023.5
20 18:56 SW 3 10.00 A Few Clouds FEW035 FEW120 57.9 48 70% 30.22 1023.7
20 17:56 S 6 10.00 A Few Clouds FEW050 FEW120 57.9 48 70% 30.24 1024.1
20 16:56 S 9 10.00 A Few Clouds FEW032 FEW060 57 46.9 69% 30.24 1024.3
20 15:56 S 9 10.00 Partly Cloudy FEW021 FEW028 SCT050 55.9 46.9 57.9 46.9 72% 30.25 1024.7
20 14:56 S 7 10.00 Fair CLR 55.9 46.9 72% 30.26 1025.0
20 13:56 S 7 10.00 Partly Cloudy FEW021 SCT029 SCT050 55 46 72% 30.27 1025.3
20 12:56 Vrbl 6 10.00 Mostly Cloudy FEW017 SCT024 BKN029 54 46 75% 30.28 1025.6
20 11:56 Vrbl 3 10.00 Mostly Cloudy SCT020 BKN026 BKN037 51.1 45 80% 30.29 1025.9
20 10:56 S 3 10.00 Overcast SCT015 BKN020 OVC027 48.2 44.6 87% 30.3 0.0
Date Time (akdt) Wind (mph) Vis. (mi.) Weather Sky Cond. Air Dwpt Max. Min. Relative Humidity Wind Chill (°F) Heat Index (°F) altimeter (in) sea level (mb) 1 hr 3 hr 6 hr
6 hour
Temperature (ºF) Pressure Precipitation (in)